Location: Hysolar-Haus
(48.7436°N, 9.0965°E)
Time: 17:24:49
(UTC+00:00)

Daily predictions for brighter satellites

Satellite Brightness Start Highest point End
(mag) Time Altitude Azimuth Time Altitude Azimuth Time Altitude Azimuth
ARGOS 3.3 20:02:05 10° SSE 20:07:26 67° ENE 20:12:50 10° N
ERS-1 Rocket 3.2 20:04:05 10° SSE 20:09:06 79° WSW 20:14:11 10° NNW
Meteor 2-2 Rocket 4.4 20:03:37 10° N 20:09:25 70° ENE 20:15:18 10° SSE
Cosmos 2227 Rocket 4.4 20:04:45 10° WSW 20:09:47 32° NW 20:14:52 10° NNE
Tiangong 1 2.3 20:09:06 10° WSW 20:11:22 22° S 20:13:37 10° SE
Cosmos 1459 Rocket 4.3 20:05:45 10° NNW 20:12:03 71° W 20:18:11 10° S
Cosmos 1867 3.8 20:08:23 10° SW 20:13:50 83° NW 20:19:21 10° NE
Cosmos 1943 3.4 20:08:40 10° NNW 20:14:19 69° ENE 20:19:58 10° SE
Cosmos 1515 Rocket 4.0 20:10:31 10° N 20:14:43 46° ENE 20:18:54 10° SSE
SL-16 R/B 4.1 20:12:34 10° NW 20:17:06 25° WSW 20:21:36 10° SSW
Abrixas 4.1 20:17:36 10° S 20:19:01 13° SE 20:20:25 10° ESE
SL-14 R/B 3.6 20:16:01 10° SSE 20:19:49 46° E 20:23:35 10° NNE
Cosmos 1356 Rocket 4.0 20:15:35 10° SSW 20:19:50 64° WNW 20:24:08 10° N
H-2A R/B 3.6 20:19:45 10° ESE 20:23:06 23° ENE 20:26:25 10° N
USA 245 3.5 20:19:45 10° SSE 20:23:29 82° ENE 20:28:14 10° NNW
Cosmos 1242 Rocket 4.4 20:20:13 10° NNW 20:23:32 30° W 20:26:49 10° SSW
Cosmos 1743 Rocket 3.9 20:19:30 10° SSE 20:23:39 47° E 20:27:48 10° NNE
Cosmos 540 Rocket 4.4 20:19:24 10° N 20:24:12 36° ENE 20:28:56 10° SE
RESURS DK-1 3.4 20:22:08 10° NW 20:26:05 41° WSW 20:30:00 10° S
Cosmos 371 Rocket 3.5 20:22:33 10° NNW 20:27:23 75° WSW 20:32:12 10° SSE
Cosmos 1674 4.0 20:24:46 10° SSW 20:28:20 42° WNW 20:31:57 10° N
Cosmos 2058 3.9 20:26:17 10° SSE 20:29:57 30° E 20:33:40 10° NNE
YAOGAN 11 4.3 20:26:22 10° SSE 20:30:54 84° WSW 20:35:30 10° NNW
Cosmos 2228 Rocket 3.2 20:27:31 10° N 20:32:08 86° ENE 20:36:43 10° S
Cosmos 1328 3.9 20:28:47 10° S 20:32:47 64° E 20:36:48 10° NNE
Cosmos 1455 3.6 20:31:00 10° NNE 20:34:18 26° ENE 20:37:22 11° SE
Cosmos 2123 Rocket 4.0 20:30:25 10° S 20:36:35 77° E 20:42:49 10° NNE
Cosmos 220 Rocket 4.0 20:34:43 10° SSW 20:39:06 72° ESE 20:43:28 10° NNE
H-2A R/B 2.2 20:35:10 10° SSE 20:40:32 83° ENE 20:46:02 10° NNW
Meteor 2-10 4.5 20:40:27 10° NNW 20:46:03 72° W 20:51:45 10° S
Lacrosse 5 3.4 20:45:49 10° WNW 20:49:55 25° SW 20:54:00 10° S
Cosmos 2285 Rocket 4.2 20:46:19 10° NNW 20:52:40 69° ENE 20:58:17 14° SSE
SPOT 5 3.5 20:47:56 10° S 20:52:47 58° W 20:57:55 10° NNW
Cosmos 1725 Rocket 4.3 20:48:50 10° NNW 20:55:03 67° W 21:01:11 10° S
SL-08 RB Rocket 4.3 20:53:47 10° S 20:58:15 54° W 21:02:49 10° NNW
ERBS 4.5 21:00:54 10° W 21:03:09 17° SW 21:05:18 10° SSW
Landsat 7 3.9 20:59:35 13° SSE 21:03:52 85° WSW 21:08:40 10° NNW
Cosmos 2151 3.0 21:01:47 10° S 21:06:05 82° E 21:10:25 10° NNE
Meteor 1-11 4.3 21:01:03 10° S 21:06:52 82° E 21:12:42 10° NNE
Cosmos 1354 Rocket 4.2 21:04:35 10° S 21:09:40 54° ESE 21:14:46 10° NNE
USA 234 3.4 21:03:24 10° ENE 21:09:46 51° SE 21:16:05 10° SSW
Cosmos 1763 Rocket 4.5 21:06:53 10° NW 21:11:39 40° WSW 21:16:20 10° S
Cosmos 841 Rocket 4.1 21:06:38 10° NNW 21:11:44 51° WSW 21:16:18 12° S
Cosmos 2263 Rocket 2.1 21:09:26 10° SSW 21:15:00 76° ESE 21:20:36 10° NNE
ATLAS 5 CENTAUR R/B 4.1 21:12:00 10° W 21:16:22 30° NNW 21:21:07 10° NNE
Cosmos 1707 Rocket 4.1 21:12:25 10° N 21:16:45 46° ENE 21:19:43 19° SE
deb Chang Zheng 4 4.2 21:13:04 10° NNE 21:17:12 40° E 21:19:58 19° SSE
Abrixas rocket 4.4 21:17:03 10° WSW 21:18:34 13° SW 21:19:26 12° SSW
Terra 1.8 21:15:01 16° SSE 21:18:48 86° WSW 21:23:36 10° NNW
Cosmos 1486 Rocket 4.3 21:14:08 10° SSW 21:19:24 72° WNW 21:24:45 10° NNE
SME Rocket 4.0 21:16:33 17° SE 21:19:26 43° ENE 21:24:26 10° N
CZ-4C R/B 4.4 21:17:08 17° SE 21:20:04 39° ENE 21:24:13 10° N
Cosmos 1464 Rocket 4.2 21:14:44 10° N 21:20:51 60° ENE 21:25:32 18° SSE
Cosmos 1703 3.2 21:17:43 14° S 21:21:10 86° E 21:25:11 10° N
Cosmos 1626 2.1 21:19:34 14° S 21:22:44 87° W 21:26:30 10° N
DMSP B5D2-2 4.1 21:18:10 10° NNE 21:23:27 88° ESE 21:28:40 10° SSW
Cosmos 304 Rocket 4.0 21:19:39 10° NNW 21:24:25 66° WSW 21:27:54 18° S
Cosmos 1356 4.1 21:23:58 10° SSW 21:27:22 53° WNW 21:30:50 10° N
Cosmos 1500 Rocket 4.3 21:23:21 10° SSW 21:27:43 52° WNW 21:32:05 10° N
CZ-4 R/B 4.2 21:23:07 10° NNE 21:27:51 48° E 21:30:59 19° SSE
COSMOS 2406 3.7 21:24:12 10° NNW 21:29:47 54° NE 21:34:05 17° SE
CZ-4C R/B 2.9 21:30:57 19° SSE 21:33:57 32° ESE 21:39:09 10° NE
DELTA 2 DEB (DPAF) 4.4 21:32:27 21° SE 21:35:18 60° ENE 21:39:43 10° N
CZ-3A R/B 1.8 21:35:10 10° WNW 21:35:21 13° W 21:35:21 13° W
Cosmos 1666 Rocket 4.1 21:33:49 22° SSE 21:36:19 44° E 21:40:33 10° NNE
CARTOSAT-1 4.1 21:34:51 17° S 21:38:00 54° W 21:42:16 10° NNW
IGS 5A 4.0 21:36:57 18° S 21:39:53 53° W 21:43:59 10° NNW
Cosmos 2084 Rocket 3.1 21:42:30 10° NW 21:46:20 85° SW 21:48:19 27° SE
Cosmos 1805 Rocket 3.5 21:44:10 20° S 21:47:05 82° E 21:51:27 10° NNE
Cosmos 1844 Rocket 3.4 21:45:14 22° SSE 21:47:57 34° ESE 21:52:56 10° NE
SL-24 R/B - RUBIN 2 4.0 21:42:59 10° NW 21:48:42 82° NE 21:52:03 22° SE
Cosmos 1633 Rocket 3.4 21:48:41 25° SSE 21:50:54 50° E 21:55:09 10° NNE
Abrixas 2.2 21:50:42 10° WSW 21:53:20 51° SSE 21:53:38 48° SE
PSLV R/B 3.6 21:54:08 30° SSW 21:55:10 46° W 21:57:57 10° NNW
Spot 4 3.9 21:52:30 23° S 21:55:35 75° WSW 22:00:29 10° NNW
SWAS 4.4 21:53:15 14° SSW 21:56:58 87° ESE 22:01:19 10° NNE
H-2A R/B 2.9 21:56:12 19° SSW 21:58:54 42° W 22:02:56 10° NNW
Tsikada Rocket 4.3 21:57:08 22° SSE 22:01:07 54° E 22:07:14 10° NNE
MINOTAUR R/B 4.2 22:01:03 42° SSW 22:01:52 82° ESE 22:04:41 10° NNE
CZ-4B R/B 3.5 22:00:58 10° NNE 22:06:17 85° ESE 22:09:55 20° SSW
SL-19 R/B 3.7 22:07:38 42° SSW 22:08:23 64° WSW 22:11:25 10° NNW
Cosmos 1455 3.9 22:06:40 10° NNW 22:09:58 27° W 22:12:21 15° SW
CZ-2C R/B 3.3 22:10:15 10° NNE 22:15:13 39° E 22:17:34 25° SSE
Cosmos 968 Rocket 3.5 22:12:38 24° S 22:15:51 69° ESE 22:21:07 10° NNE
Meteor 2-10 Rocket 3.7 22:14:42 10° N 22:20:06 74° ENE 22:23:14 27° SSE
H-2A R/B 4.4 22:17:19 10° SW 22:20:38 16° W 22:24:00 10° NW
Cosmos 1470 Rocket 3.8 22:21:50 32° SSE 22:23:43 58° E 22:28:07 10° NNE
Cosmos 2242 Rocket 3.8 22:24:42 10° NNW 22:29:18 70° W 22:31:28 30° S
CZ-3B DEB 4.3 22:17:39 10° WNW 22:29:41 77° NNE 22:42:24 10° ESE
Cosmos 1933 3.4 22:36:20 10° NNW 22:40:26 71° W 22:41:58 36° S
Sich 1 3.9 22:37:58 19° SW 22:40:42 42° WNW 22:44:48 10° N
Cosmos 1833 Rocket 3.9 22:37:14 10° NNW 22:42:28 37° NE 22:47:25 11° ESE
Cosmos 292 Rocket 4.3 22:40:30 10° NNW 22:45:05 48° WSW 22:47:05 30° SSW
Cosmos 1892 3.3 22:44:49 35° SE 22:45:52 44° E 22:49:37 10° NNE
Cosmos 2278 Rocket 2.8 22:45:40 28° SSE 22:47:57 41° ESE 22:53:14 10° NE
SL-27 R/B 2.4 22:44:54 10° NNW 22:48:15 69° ENE 22:49:02 47° SE
Cosmos 2346 Rocket 4.4 22:47:35 28° S 22:51:02 81° E 22:57:08 10° N
Cosmos 1315 Rocket 2.8 22:50:52 41° SSE 22:52:03 67° E 22:55:59 10° NNE
CZ-4C R/B 4.1 22:51:14 26° ESE 22:52:13 32° ENE 22:55:08 10° N
USA 234 3.6 22:46:27 10° NE 22:52:57 68° NNW 22:59:25 10° WSW
Cosmos 1400 Rocket 3.2 22:51:38 30° SSW 22:53:31 63° WNW 22:57:40 10° N
Cosmos 1844 3.6 22:52:32 25° SSW 22:55:53 82° ESE 23:01:30 10° NNE
Terra 4.3 22:55:38 10° WSW 22:57:17 12° W 22:58:56 10° WNW
Cosmos 2263 Rocket 4.3 22:55:04 10° W 22:59:33 24° NW 23:04:05 10° N
ALOS 2 2.7 23:00:28 36° S 23:02:09 64° WSW 23:06:32 10° NNW
Cosmos 923 Rocket 3.9 22:57:02 10° NNW 23:02:17 86° WSW 23:04:47 32° SSE
Cosmos 1782 3.9 22:58:50 10° N 23:02:37 36° ENE 23:04:18 25° ESE
CZ-2C R/B 3.5 23:00:39 28° S 23:03:37 59° W 23:09:11 10° NNW
Cosmos 1606 4.0 23:00:45 10° N 23:04:16 32° ENE 23:05:48 23° ESE
Genesis I 3.4 23:07:30 45° SSE 23:08:14 52° ESE 23:12:04 10° NE
Cosmos 1346 Rocket 2.7 23:06:53 10° N 23:10:47 78° ENE 23:11:58 43° SSE
COSMOS 2406 4.4 23:09:00 10° NW 23:13:47 28° WSW 23:16:08 21° SW
Cosmos 1634 Rocket 4.1 23:10:00 10° NNW 23:16:07 66° W 23:19:28 28° SSW
Cosmos 2082 Rocket 2.5 23:12:17 10° NNW 23:17:54 64° ENE 23:21:42 21° SE
Aureole 3 4.0 23:17:37 32° S 23:20:01 67° E 23:24:23 10° NNE
Cosmos 1408 3.8 23:19:40 27° ESE 23:20:28 30° E 23:23:41 10° NNE
CZ-4C R/B 2.9 23:16:44 10° WSW 23:22:06 57° NW 23:28:19 10° NE
Cosmos 1933 Rocket 4.5 23:21:21 23° SW 23:23:32 40° WNW 23:27:40 10° N
CZ-4B R/B 2.1 23:23:09 34° SE 23:24:17 50° ENE 23:27:47 10° N
H-2A R/B 4.2 23:21:20 10° NE 23:25:00 24° E 23:26:38 20° SE
Timation 1 Rocket 4.4 23:24:53 30° S 23:27:50 64° ESE 23:33:45 10° NE
Cosmos 192 4.3 23:24:00 10° NNW 23:28:58 76° WSW 23:31:06 34° S
Cosmos 1844 Rocket 3.6 23:26:51 12° SW 23:31:43 46° NW 23:37:06 10° NNE
Cosmos 2112 Rocket 4.0 23:26:47 10° NNW 23:32:05 73° WSW 23:34:33 32° S
Cosmos 44 Rocket 3.7 23:32:42 34° SSE 23:34:10 45° ESE 23:38:44 10° NE
Cosmos 1461 2.6 23:33:10 39° SW 23:34:34 88° SE 23:38:36 10° NE
SAR-Lupe-2 3.5 23:35:03 46° SSE 23:36:01 79° ENE 23:39:38 10° NNW
Cosmos 1825 2.7 23:37:58 36° SE 23:39:00 47° E 23:42:41 10° NNE
COSMOS 2487 3.0 23:35:57 10° NNW 23:39:27 53° ENE 23:40:46 32° SE
Cosmos 1680 Rocket 3.8 23:38:09 10° NNW 23:43:16 52° WSW 23:45:26 32° SSW
Timation 2 Rocket 4.2 23:38:28 10° NNW 23:44:32 68° ENE 23:49:42 15° SE
Cosmos 1703 Rocket 4.4 23:46:50 10° NNW 23:51:01 38° W 23:52:36 29° SW
Meteor 2-3 Rocket 4.3 23:49:45 23° SW 23:53:12 53° WNW 23:58:52 10° N
Meteor 1-10 Rocket 4.3 23:47:48 10° NNW 23:53:36 74° W 23:56:42 29° S
Cosmos 1689 Rocket 2.1 23:54:28 61° SSW 23:54:52 73° W 23:58:02 10° NNW
